Weather Roundup
Issued by NWS Springfield, MO

Home | Current Version | Previous Version | Text Only | Print | Product List | Glossary On
Versions: 1 2 3 4 5 6 7 8 9 10 11 12 13 14 15 16 17 18 19 20 21 22 23 24 25 26 27 28 29 30 31 32 33 34 35 36 37 38 39 40 41 42 43 44 45 46 47 48 49 50
000
NZUS99 KSGF 061007
HRRSGF

HOURLY WEATHER
NATIONAL WEATHER SERVICE SPRINGFIELD MO
500 AM CDT MON JUL 06 2015

......SGF CWA......

CITY           SKY/WX    TMP DP  RH WIND       PRES   REMARKS
SPRINGFIELD    PTCLDY    72  69  90 S9        29.99F
JOPLIN         PTCLDY    75  71  87 S10       29.96F
WEST PLAINS    CLOUDY    71  69  93 CALM      30.05R FOG
ROLLA          PTCLDY    72  70  93 S12       29.99S
OSAGE BEACH    PTCLDY    72  68  88 SE3       29.97S
BRANSON          N/A     72  70  94 CALM      30.03S

......SURROUNDING SGF CWA......

CITY           SKY/WX    TMP DP  RH WIND       PRES   REMARKS
CHANUTE        MOCLDY    74  71  91 S12       29.92F
PARSONS        MOCLDY    75  72  90 S7        29.94S
COFFEYVILLE    MOCLDY    74  71  91 SE8       29.92F
EMPORIA        CLOUDY    75  70  84 S12       29.88F
GROVE OK       PTCLDY    75  75 100 S6        29.98S
ROGERS AR      CLEAR     71  70  96 S6        30.02S
SILOAM SPRINGS PTCLDY    72  66  83 S5        30.02S
HARRISON AR    PTCLDY    70  69  97 E5        30.03S
NEAR YELLVILLE PTCLDY    72  68  88 CALM      30.00R

......KANSAS AND MISSOURI......

CITY           SKY/WX    TMP DP  RH WIND       PRES   REMARKS
KANSAS CTY INT CLOUDY    74  70  87 S14       29.88F
DOWNTOWN KC    CLOUDY    75  69  81 S15       29.88F
COLUMBIA       PTCLDY    73  71  93 S8        29.96F
SEDALIA        MOCLDY    73  68  84 S9        29.94F
ST JOSEPH      CLOUDY    77  71  82 S12       29.85F
ST LOUIS       PTCLDY    74  68  81 S5        30.00F
SPIRIT OF STL  CLEAR     71  70  96 CALM      29.98S
KIRKSVILLE     MOCLDY    72  68  87 S7        29.92F
WICHITA        MOCLDY    78  68  71 S13       29.86F
TOPEKA         CLOUDY    76  71  85 SE5       29.86F
OLATHE         CLOUDY    72  68  87 S10       29.90F

......TENNESSEE......

CITY           SKY/WX    TMP DP  RH WIND       PRES   REMARKS
MEMPHIS        PTCLDY    72  68  88 S6        30.09R
NASHVILLE      CLEAR     69  69 100 CALM      30.10R

......ARKANSAS.......

CITY           SKY/WX    TMP DP  RH WIND       PRES   REMARKS
FAYETTEVILLE   MOCLDY    71  70  96 CALM      30.02S
FT SMITH       PTCLDY    72  69  90 NE5       29.99S THUNDER
LITTLE ROCK    CLOUDY    70  65  84 S3        30.05R

......OKLAHOMA.......

CITY           SKY/WX    TMP DP  RH WIND       PRES   REMARKS
TULSA          CLOUDY    76  72  87 SE7       29.93F
PONCA CITY     MOCLDY    79  69  71 S7        29.88F
MCALESTER      MOCLDY    77  72  84 S7        29.98R
OKLAHOMA CITY  MOCLDY    75  71  87 S10       29.92F

......IOWA............

CITY           SKY/WX    TMP DP  RH WIND       PRES   REMARKS
DES MOINES     CLOUDY    79  71  76 S10       29.82R
QUAD CITIES    MOCLDY    71  66  84 S8        29.92F HAZE

......ILLINOIS........

CITY           SKY/WX    TMP DP  RH WIND       PRES   REMARKS
QUINCY         PTCLDY    73  70  90 S8        29.94F
CHICAGO        PTCLDY    65  62  90 S6        29.97F



USA.gov is the U.S. government's official web portal to all federal, state and local government web resources and services.